Weather Roundup
Issued by NWS Corpus Christi, TX

Home | Current Version | Previous Version | Text Only | Print | Product List | Glossary On
Versions: 1 2 3 4 5 6 7 8 9 10 11 12 13 14 15 16 17 18 19 20 21 22 23 24 25 26 27 28 29 30 31 32 33 34 35 36 37 38 39 40 41 42 43 44 45 46 47 48 49 50
000
ASUS44 KCRP 271410
HRRCRP

SOUTH TEXAS REGIONAL WEATHER ROUNDUP
NATIONAL WEATHER SERVICE CORPUS CHRISTI TX
900 AM CDT TUE JUN 27 2017


TXZ229>244-271500-
...CORPUS CHRISTI AREA OBSERVATIONS...

CITY           SKY/WX    TMP DP  RH WIND       PRES   REMARKS
CORPUS CHRISTI CLOUDY    80  76  87 N9        29.96R
NAS CORPUS CHR LGT RAIN  78  76  93 S7        29.95R
ROCKPORT       HVY RAIN  75  73  93 E7        29.98R FOG
KINGSVILLE NAS PTSUNNY   82  78  88 N8        29.95S HX  91
ALICE          PTSUNNY   80  74  81 NE9       29.97R
ORANGE GROVE   CLOUDY    81  76  84 NE9       29.99R
FALFURRIAS     SUNNY     81  75  82 N6        29.96R
$$

...VICTORIA AREA OBSERVATIONS...

CITY           SKY/WX    TMP DP  RH WIND       PRES   REMARKS
VICTORIA       CLOUDY    76  73  91 NE7       30.00R
BEEVILLE       FAIR      80  80 100 NE12      29.99R
PLEASANTON     CLOUDY    77  74  89 E7        30.02R
SAN ANTONIO    CLOUDY    76  72  87 NE6       30.03R
$$

...LAREDO AREA OBSERVATIONS...

CITY           SKY/WX    TMP DP  RH WIND       PRES   REMARKS
LAREDO         MOSUNNY   77  74  90 NE9       29.99R
COTULLA        SUNNY     79  72  79 E9        29.99R
DEL RIO        PTSUNNY   77  73  87 E7        30.01R
MCALLEN        MOSUNNY   85  75  72 NE7       29.95R HX  93
HEBBRONVILLE   MOSUNNY   77  73  85 CALM      30.00R
$$

...OTHER TEXAS OBSERVATIONS...

CITY           SKY/WX    TMP DP  RH WIND       PRES   REMARKS
BROWNSVILLE    LGT RAIN  77  75  93 SE10      29.96R
HOUSTON        PTSUNNY   79  74  84 E7        30.02R
COL. STATION   CLOUDY    76  74  93 E6        30.02S
AUSTIN         CLOUDY    77  74  90 CALM      30.03R
WACO           SUNNY     78  73  84 CALM      30.04R
FORT WORTH     MOSUNNY   81  73  76 CALM      30.02S
WICHITA FALLS  MOSUNNY   75  70  84 CALM      30.05R
LUBBOCK        MOSUNNY   72  63  73 SW9       30.13R
EL PASO        MOSUNNY   73  60  63 CALM      30.15R
$$

...MARINE OBSERVATIONS...

STATION/POSITION TIME  SKY/WX   TEMP    WIND        PRES    VSBY  WAVE   SWELL
                                AIR SEA DIR/SP/G                  HT/PER HT/PER
                 (UTC)          (F)     (DEG/KT/KT) (MB)    (MI)  (FT/S) (FT/S)
PORT ARANSAS     1300            78 84  100/  4/  5 1013.9R
BUOY 90 E PORT A 1350            82 84   80/ 17/ 21 1014.1R         3/ 5
BUOY 45 SE BAFFI 1250            80     170/ 16/ 19 1012.2          2/ 5
BUOY 200 E PT IS 1350            81 84  210/ 10/ 14 1014.3R         2/ 5   2/ 5
BUOY 15 E GALVES 1250            80 82  100/ 12/ 14 1015.2          3/ 4
$$




USA.gov is the U.S. government's official web portal to all federal, state and local government web resources and services.